SCP
1 2 2 2 2 1 2 2 3 3 3 2 2 2 2 2 2 2 2 2 2 2 2 2 1 1 1 1 1 1 1 1 1 1 1 0 0 0 0 0 0 0 0
2 1 2 2 2 1 1 2 2 2 2 2 2 2 3 2 2 2 3 3 3 2 2 2 2 2 1 1 1 1 1 1 1 1 1 1 0 0 0 0 0 0 0
2 2 2 2 2 2 1 1 2 2 2 2 2 3 3 3 2 2 3 3 3 3 3 2 2 2 2 2 1 1 1 1 1 1 1 1 1 1 1 1 0 0 0
1 1 2 2 2 2 2 2 2 2 2 2 2 2 2 2 2 2 3 3 3 3 2 2 2 2 2 2 2 1 1 1 1 1 1 1 1 1 1 1 0 0 0
1 1 2 2 3 3 2 2 2 2 2 2 2 2 2 2 2 2 2 3 3 3 3 2 2 2 2 2 2 1 1 1 1 1 1 1 1 1 1 1 0 0 0
0 1 1 2 3 3 2 2 1 1 2 2 2 2 2 2 2 2 2 3 3 4 3 3 2 2 2 2 2 1 1 1 1 1 1 1 1 1 1 1 1 0 0
0 0 1 2 3 3 2 2 2 2 2 3 3 2 3 3 3 2 3 3 4 4 4 4 3 3 2 2 2 1 1 1 1 1 1 1 1 1 1 1 1 1 0
0 1 1 2 3 3 3 3 3 3 3 3 3 2 3 3 3 3 3 3 4 4 4 4 4 4 3 2 2 2 1 1 1 1 1 1 1 1 1 1 1 1 1
0 0 1 2 2 2 2 2 3 3 2 2 2 2 2 3 4 4 3 3 4 4 4 4 4 4 3 3 2 2 1 1 1 1 1 1 1 0 0 1 1 1 1
0 0 1 1 1 1 1 2 2 2 2 1 1 1 2 3 4 4 4 4 4 3 4 4 4 4 4 3 2 2 2 1 1 1 1 1 1 0 0 1 1 0 0
0 0 0 0 1 1 1 1 1 1 1 1 1 1 1 2 4 4 4 4 4 3 3 4 4 4 3 3 2 2 2 1 1 1 1 1 1 0 0 0 0 0 0
0 0 0 0 1 1 1 1 1 1 1 0 1 1 1 2 3 4 4 4 3 3 3 3 3 3 3 2 2 2 1 1 1 1 1 1 1 1 0 0 0 0 0
0 0 0 0 0 1 1 1 1 1 0 0 1 1 1 2 3 4 4 4 3 3 2 2 2 3 2 2 2 2 1 1 1 1 1 1 1 0 0 0 0 0 0
0 0 0 0 0 0 1 1 0 0 0 0 1 1 1 2 2 3 3 3 3 2 2 2 2 2 2 2 2 1 1 1 1 1 1 1 0 0 0 0 0 0 0
0 0 0 0 0 0 0 0 0 0 0 0 0 1 1 1 2 2 2 2 2 2 1 2 2 2 1 1 1 1 1 1 1 1 0 0 0 0 0 0 0 0 0
0 0 0 0 0 0 0 0 0 0 0 0 0 0 0 1 1 1 1 1 1 1 1 1 1 0 0 0 0 0 1 0 0 0 0 0 0 0 0 0 0 0 0
0 0 0 0 0 0 0 0 0 0 0 0 0 0 0 0 0 0 0 0 0 0 0 0 0 0 0 0 0 0 0 0 0 0 0 0 0 0 0 0 0 0 0
0 0 0 0 0 0 0 0 0 0 0 0 0 0 0 0 0 0 0 0 0 0 0 0 0 0 0 0 0 0 0 0 0 0 0 0 0 0 0 0 0 0 0
0 0 0 0 0 0 0 0 0 0 0 0 0 0 0 0 0 0 0 0 0 0 0 0 0 0 0 0 0 0 0 0 0 0 0 0 0 0 0 0 0 0 0
0 0 0 0 0 0 0 0 0 0 0 0 0 0 0 0 0 0 0 0 0 0 0 0 0 0 0 0 0 0 0 0 0 0 0 0 0 0 0 0 0 0 0
0 0 0 0 0 0 0 0 0 0 0 0 0 0 0 0 0 0 0 0 0 0 0 0 0 0 0 0 0 0 0 0 0 0 0 0 0 0 0 0 0 0 0
0 0 0 0 0 0 0 0 0 0 0 0 0 0 0 0 0 0 0 0 0 0 0 0 0 0 0 0 0 0 0 0 0 0 0 0 0 0 0 0 0 0 0
0 0 0 0 0 0 0 0 0 0 0 0 0 0 0 0 0 0 0 0 0 0 0 0 0 0 0 0 0 0 0 0 0 0 0 0 0 0 0 0 0 0 0
0 0 0 0 0 0 0 0 0 0 0 0 0 0 0 0 0 0 0 0 0 0 0 0 0 0 0 0 0 0 0 0 0 0 0 0 0 0 0 0 0 0 0
0 0 0 0 0 0 0 0 0 0 0 0 0 0 0 0 0 0 0 0 0 0 0 0 0 0 0 0 0 0 0 0 0 0 0 0 0 0 0 0 0 0 0
0 0 0 0 0 0 0 0 0 0 0 0 0 0 0 0 0 0 0 0 0 0 0 0 0 0 0 0 0 0 0 0 0 0 0 0 0 0 0 0 0 0 0
Wind_Speed
6 4 4 5 6 8 9 9 9 9 8 7 7 7 8 8 7 8 10 11 11 11 9 7 8 7 7 7 7 6 6 5 4 3 3 3 3 2 2 2 2 2 1
4 4 4 4 6 7 9 10 10 9 9 7 7 6 7 7 7 7 9 11 11 11 9 9 7 7 6 8 8 7 5 4 4 4 3 3 4 3 2 1 1 1 1
4 3 3 5 5 6 8 9 10 11 11 10 7 5 5 5 6 8 8 10 11 11 10 10 9 8 8 7 8 8 8 6 5 5 4 3 3 2 3 3 2 2 1
3 3 4 4 5 6 6 7 8 10 10 10 9 10 8 8 9 7 7 9 10 11 11 10 10 9 7 8 8 8 7 7 6 5 4 4 2 3 2 3 3 2 1
2 2 3 4 5 5 5 6 7 8 9 9 10 10 9 7 6 7 9 9 9 10 10 10 9 9 8 8 8 8 8 7 6 5 4 4 4 5 4 4 3 3 2
1 1 2 2 3 4 5 5 7 7 8 10 10 11 11 9 9 9 9 8 7 8 10 9 9 9 8 8 8 8 8 7 6 5 4 4 4 4 5 5 4 3 2
1 1 1 2 2 4 5 5 7 7 7 9 11 12 12 11 12 12 11 10 8 7 10 9 9 8 7 7 7 7 7 6 7 6 4 4 4 3 3 4 4 4 2
3 2 1 2 2 3 4 5 6 6 6 7 9 10 10 8 8 10 9 9 8 8 10 10 9 8 8 7 7 6 6 5 6 6 5 4 4 3 3 3 3 3 3
5 3 2 2 1 2 2 3 4 4 5 6 7 8 9 9 9 9 8 7 6 6 8 9 9 9 8 8 7 6 6 6 6 5 5 4 3 3 2 3 3 4 4
7 5 4 3 2 2 1 1 2 3 4 5 5 5 7 8 8 7 8 7 7 7 8 9 9 9 9 8 7 6 6 6 5 4 6 5 3 3 3 3 3 4 4
7 6 5 4 4 3 2 1 0 1 2 3 4 5 6 6 7 6 7 7 7 8 9 9 9 9 8 8 7 7 7 7 6 5 5 5 4 3 3 3 3 3 4
8 7 6 5 5 5 4 3 2 1 1 2 2 3 4 5 6 6 6 7 8 8 9 10 9 8 8 7 8 7 7 7 7 6 6 5 3 4 3 3 3 3 3
9 7 7 6 6 5 5 4 3 2 2 1 1 2 3 4 5 5 6 7 8 8 8 8 9 9 8 8 7 7 7 7 6 6 6 5 5 4 3 3 3 2 2
9 8 8 7 7 6 5 4 4 3 2 1 0 2 3 3 4 5 5 6 7 8 8 8 8 8 8 8 7 7 7 6 5 5 5 5 4 4 3 3 3 2 3
10 9 8 8 7 7 6 5 4 4 3 1 0 1 1 2 3 4 5 5 6 7 8 8 8 8 7 7 8 8 7 7 6 5 4 4 3 3 2 2 3 3 3
10 10 9 9 8 8 7 5 5 4 3 1 1 1 2 2 3 4 5 6 6 6 7 8 8 8 6 9 10 8 7 7 7 6 4 4 4 4 4 3 1 1 2
10 10 10 9 9 8 7 6 5 4 2 1 1 0 2 3 3 4 5 6 6 6 7 7 7 7 8 11 11 9 7 7 6 6 5 4 4 5 4 4 4 2 1
10 10 9 9 9 8 7 5 4 3 2 1 0 1 2 3 3 4 4 5 5 6 6 6 7 7 8 11 11 11 7 6 6 5 6 5 6 5 4 4 3 2 2
9 9 9 9 8 8 7 6 4 3 2 1 1 1 2 3 4 4 5 4 5 5 5 6 7 7 8 10 11 9 6 5 5 5 5 5 5 7 7 5 4 3 2
8 8 8 8 8 8 7 5 5 4 3 3 2 1 2 3 4 5 5 4 4 4 5 5 5 7 7 10 11 10 5 5 5 4 4 5 6 8 8 5 5 4 3
8 8 8 7 7 7 6 5 5 5 4 3 2 1 2 3 4 4 4 4 5 5 5 5 5 5 6 9 11 10 5 5 5 4 4 5 8 8 8 6 4 3 3
8 8 7 7 7 7 6 5 5 5 4 3 1 1 2 2 3 4 4 5 6 6 5 5 4 4 5 7 9 10 8 7 5 5 4 5 8 8 8 5 5 6 5
7 7 7 7 6 6 6 6 6 5 3 2 1 1 2 2 3 4 5 5 5 5 5 4 4 4 4 5 8 10 11 10 5 4 6 7 8 8 6 7 7 7 4
6 6 6 6 6 6 6 6 6 5 3 2 1 1 2 2 3 3 3 4 5 5 4 5 4 4 4 4 5 6 6 8 6 5 6 8 8 6 5 6 6 5 4
6 5 5 6 6 6 6 6 5 4 2 1 1 1 1 2 2 2 2 3 4 4 5 5 4 5 5 7 9 7 6 6 6 6 4 4 5 5 5 5 5 5 5
5 5 5 5 6 5 6 6 5 4 2 1 1 1 1 1 2 2 1 1 2 3 4 4 4 4 5 6 10 10 10 10 12 8 5 6 6 6 6 6 6 6 6
Wind_Direction
235 214 210 208 202 197 190 189 194 185 178 181 180 187 186 186 189 192 192 193 194 192 192 190 191 191 196 200 201 201 205 209 209 222 231 223 220 225 232 240 236 205 209
233 213 209 206 202 198 190 190 194 192 187 191 185 191 187 185 188 189 192 195 194 193 194 195 192 192 196 201 202 201 206 203 206 223 237 231 202 183 185 195 211 212 186
246 222 206 207 193 199 198 196 194 198 195 192 184 175 184 177 184 191 192 195 195 193 192 195 196 195 197 201 203 204 211 211 204 223 235 241 236 184 182 181 194 195 196
256 229 210 209 202 208 208 200 199 204 201 192 190 186 198 198 198 193 192 192 196 197 195 196 198 198 200 203 204 206 211 216 211 207 231 258 284 254 228 184 182 188 220
274 245 223 214 210 208 206 201 196 201 200 196 195 197 208 208 198 192 193 193 194 198 198 198 198 199 201 202 203 205 209 214 217 208 198 214 232 245 257 249 206 203 206
292 282 257 228 217 212 203 199 196 205 203 203 198 199 205 206 201 197 196 196 195 196 197 198 199 201 201 199 199 205 208 211 214 213 206 204 209 212 225 246 250 249 213
344 352 267 245 224 219 203 205 201 207 211 210 208 205 206 208 210 204 203 200 196 196 195 194 195 194 195 193 191 195 197 200 203 207 209 214 222 215 219 239 251 253 236
359 356 316 257 233 224 207 203 208 213 210 212 213 213 212 213 214 210 202 201 201 198 191 191 187 186 187 185 183 183 185 190 199 203 202 206 208 206 213 226 234 247 236
356 350 343 297 269 238 220 204 214 217 209 213 211 210 208 210 212 209 203 200 199 191 186 184 181 180 181 181 175 180 182 182 189 192 193 196 193 192 204 217 226 240 248
3 360 356 352 3 350 321 169 206 218 214 215 213 214 209 208 209 203 199 192 188 180 180 181 179 177 175 172 171 174 176 179 179 180 186 190 183 180 191 205 220 235 249
1 2 2 3 14 18 19 38 152 216 216 220 216 210 201 198 199 195 194 185 177 175 175 173 173 172 170 169 171 172 171 174 173 175 183 184 179 180 185 192 210 222 231
3 6 9 12 20 22 22 21 18 8 317 246 218 197 185 184 187 187 188 179 175 174 171 167 165 163 164 165 170 172 175 174 174 173 176 179 174 187 189 194 206 217 225
12 13 14 12 12 13 15 17 15 359 339 309 210 188 178 176 183 181 178 176 168 163 164 165 165 164 163 165 171 172 170 169 170 172 176 174 179 186 184 200 209 213 221
14 12 9 6 2 3 5 7 6 357 341 327 189 171 175 174 170 167 164 166 164 163 163 165 164 160 158 160 162 162 161 159 157 161 166 168 177 180 179 195 209 213 218
8 7 3 360 356 354 355 358 355 353 348 349 32 127 134 140 141 147 154 157 160 158 156 155 151 151 154 161 162 159 159 157 153 153 155 153 149 156 177 193 201 205 216
360 357 357 355 353 350 346 346 349 346 339 338 21 84 136 143 150 155 152 148 148 146 147 152 151 152 152 153 157 156 156 155 156 154 150 145 147 145 147 145 148 204 225
351 350 350 349 345 343 338 334 336 338 337 338 7 106 162 157 158 157 155 152 149 147 149 151 151 151 149 152 154 156 152 155 157 159 160 155 151 157 150 137 130 114 60
343 342 341 338 337 336 335 332 331 331 337 341 318 183 175 162 156 159 156 152 150 152 150 151 151 148 151 155 154 150 150 151 155 163 170 167 166 166 163 155 143 128 103
334 334 335 331 332 337 335 330 330 331 333 329 299 232 190 175 167 166 161 155 151 148 149 151 153 154 155 159 158 155 150 152 157 162 172 175 173 163 168 166 162 161 139
333 335 334 334 338 340 334 327 326 325 324 318 307 270 204 190 180 171 160 152 148 147 146 151 160 162 162 164 167 167 159 160 161 166 174 187 186 173 182 186 180 185 170
330 334 334 335 338 339 335 326 325 323 322 316 302 246 202 190 178 163 155 149 145 147 152 152 159 167 169 171 178 179 172 170 169 173 180 183 186 189 192 199 198 185 169
331 333 332 333 336 341 338 329 325 322 319 309 281 219 184 165 166 159 155 157 158 158 162 163 166 173 176 184 186 191 190 182 178 182 181 180 186 193 194 198 184 176 178
327 329 328 327 334 342 339 332 327 326 319 302 279 214 174 167 170 171 167 165 170 172 175 176 182 183 183 187 195 198 197 195 190 180 177 179 186 192 196 196 189 188 193
322 325 324 323 328 335 335 332 327 323 314 298 281 207 184 175 172 175 179 179 184 186 184 188 192 189 190 192 190 193 196 196 192 180 177 183 190 194 193 190 197 203 205
317 319 318 317 321 328 334 338 334 323 314 306 289 222 200 187 181 187 199 203 206 204 197 198 195 193 203 206 197 188 188 185 179 163 165 176 182 190 194 198 202 202 203
319 317 318 316 318 327 334 337 335 322 313 307 294 256 210 193 190 189 199 215 228 228 233 227 211 216 219 198 200 204 202 195 181 172 182 191 197 202 202 204 205 207 209